FW9014 Weather Reports


time (UTC)temp
C
wind
direction
speed
KPH
gust
KPH
rain 1hr
cm
rain 24hr
cm
rain mn
cm
humidity
%
barometer
mb
20260506050109 24 199 27.4 40.2 0.00 0.03 0.00 90 1009.6
20260506044549 24 185 24.1 32.2 0.00 0.03 0.03 90 1009.5
20260506043049 24 192 24.1 35.4 0.00 0.03 0.03 90 1009.5
20260506041558 24 185 24.1 38.6 0.00 0.03 0.03 90 1009.2
20260506040055 24 192 22.5 33.8 0.00 0.03 0.03 90 1009.3
20260506034552 24 184 22.5 32.2 0.00 0.05 0.03 90 1009.2
20260506033047 24 186 20.9 32.2 0.00 0.05 0.03 90 1009.1
20260506031545 24 184 19.3 25.7 0.00 0.05 0.03 90 1008.9
20260506030045 24 186 17.7 24.1 0.00 0.05 0.03 90 1008.9
20260506024546 24 186 17.7 22.5 0.00 0.05 0.03 90 1009.0
20260506023050 24 173 14.5 20.9 0.00 0.05 0.03 90 1008.7
20260506021551 24 176 19.3 29.0 0.00 0.05 0.03 90 1008.2
20260506020053 24 179 17.7 25.7 0.00 0.05 0.03 89 1007.9
20260506014547 24 173 20.9 33.8 0.00 0.05 0.03 88 1007.6
20260506013053 25 180 25.7 33.8 0.00 0.05 0.03 88 1007.5
20260506011548 25 182 22.5 38.6 0.00 0.05 0.03 87 1007.2
20260506010046 25 190 22.5 35.4 0.00 0.05 0.03 87 1007.3
20260506004548 25 193 25.7 37.0 0.00 0.05 0.03 87 1007.0
20260506003050 25 173 22.5 29.0 0.00 0.05 0.03 88 1006.9
20260506001554 25 168 20.9 29.0 0.00 0.05 0.03 87 1007.0
20260506000054 25 178 22.5 30.6 0.00 0.05 0.03 86 1006.9
20260505234546 25 184 19.3 25.7 0.00 0.05 0.03 86 1007.0
20260505233056 25 184 17.7 24.1 0.00 0.05 0.03 86 1006.9
20260505231552 26 181 14.5 27.4 0.00 0.05 0.03 85 1007.0
20260505230112 26 186 12.9 20.9 0.00 0.05 0.03 84 1007.0
20260505224545 26 186 16.1 24.1 0.00 0.05 0.03 84 1006.9
20260505223047 26 183 17.7 25.7 0.00 0.05 0.03 83 1007.0
20260505221554 25 177 11.3 16.1 0.03 0.05 0.03 84 1006.9
20260505220054 26 200 14.5 25.7 0.03 0.05 0.03 83 1007.1
20260505214548 26 199 22.5 29.0 0.03 0.05 0.03 83 1007.2
20260505213048 26 186 16.1 19.3 0.03 0.05 0.03 83 1007.3
20260505211558 26 206 16.1 20.9 0.00 0.03 0.00 80 1007.3
20260505210046 26 205 11.3 16.1 0.00 0.03 0.00 82 1007.7
20260505204549 26 211 19.3 24.1 0.00 0.03 0.00 81 1007.8
20260505203051 26 210 14.5 19.3 0.00 0.03 0.00 83 1008.2
20260505201551 26 186 16.1 24.1 0.00 0.03 0.00 82 1008.5
20260505200056 26 223 14.5 22.5 0.00 0.03 0.00 82 1008.6
20260505194554 26 202 14.5 32.2 0.00 0.03 0.00 83 1008.8
20260505193101 25 217 14.5 20.9 0.00 0.03 0.00 84 1008.9
20260505191554 25 203 14.5 20.9 0.00 0.03 0.00 85 1008.8
20260505190052 25 203 14.5 22.5 0.00 0.03 0.00 85 1009.2
20260505184551 25 212 16.1 24.1 0.00 0.03 0.00 84 1009.3
20260505183046 25 216 19.3 22.5 0.00 0.03 0.00 85 1009.4
20260505181554 25 213 22.5 35.4 0.00 0.03 0.00 84 1009.5
20260505180045 25 217 19.3 30.6 0.00 0.03 0.00 85 1009.5
20260505174557 25 219 19.3 24.1 0.00 0.03 0.00 85 1009.6
20260505173047 25 220 16.1 25.7 0.00 0.03 0.00 85 1009.8
20260505171548 24 215 19.3 27.4 0.00 0.03 0.00 85 1009.7
20260505170050 24 217 19.3 25.7 0.00 0.03 0.00 86 1009.9
20260505164554 24 205 20.9 29.0 0.00 0.03 0.00 85 1009.9
20260505163054 24 185 20.9 27.4 0.00 0.03 0.00 86 1010.0
20260505161551 24 216 16.1 27.4 0.00 0.03 0.00 86 1010.0
20260505153047 23 214 17.7 24.1 0.00 0.03 0.00 87 1009.9
20260505151553 23 196 16.1 22.5 0.00 0.03 0.00 87 1009.9
20260505150105 23 205 19.3 29.0 0.00 0.03 0.00 88 1009.8
20260505124553 21 177 17.7 25.7 0.00 0.03 0.00 93 1009.4
20260505123057 20 164 17.7 24.1 0.00 0.03 0.00 92 1009.0
20260505121544 20 179 16.1 22.5 0.00 0.03 0.00 93 1009.4
20260505120051 20 163 17.7 24.1 0.00 0.03 0.00 93 1009.1
20260505114552 20 171 14.5 22.5 0.00 0.03 0.00 93 1009.3
20260505113047 20 187 16.1 22.5 0.00 0.03 0.00 93 1009.3
20260505111546 20 174 19.3 29.0 0.00 0.03 0.00 93 1008.8
20260505101551 20 171 14.5 20.9 0.00 0.03 0.00 92 1009.0
20260505100048 20 167 17.7 22.5 0.00 0.03 0.00 91 1008.8
20260505094552 20 165 17.7 20.9 0.00 0.03 0.00 91 1009.0
20260505093053 20 186 16.1 19.3 0.00 0.03 0.00 91 1009.2
20260505091543 20 175 14.5 22.5 0.00 0.03 0.00 90 1009.4
20260505090053 20 182 16.1 20.9 0.00 0.03 0.00 90 1009.4
20260505084554 20 171 14.5 19.3 0.00 0.03 0.00 89 1009.4
20260505083058 20 171 12.9 17.7 0.00 0.03 0.00 89 1009.7
20260505081558 20 175 12.9 19.3 0.00 0.03 0.00 88 1009.9
20260505080051 20 171 16.1 20.9 0.00 0.03 0.00 88 1009.6
20260505074542 21 176 16.1 19.3 0.00 0.05 0.00 87 1009.8
20260505073049 21 198 17.7 24.1 0.00 0.05 0.00 86 1009.9
20260505071550 21 194 17.7 24.1 0.00 0.05 0.00 86 1010.1
20260505070048 21 201 20.9 29.0 0.00 0.05 0.00 85 1010.2
20260505064549 21 191 20.9 29.0 0.00 0.05 0.00 85 1010.5
20260505063051 21 194 22.5 29.0 0.00 0.05 0.00 84 1010.4
20260505061550 21 201 22.5 30.6 0.00 0.05 0.00 83 1010.4
20260505060052 22 198 25.7 38.6 0.00 0.05 0.00 83 1010.6